Date String (YYYY-MM-DD hh:mm:ss) UTC,Instrument flags,Ambient pressure (hPa),Sample flow (lpm),Bypass flow (lpm),Sample temperature (°C),Ambient temperature (°C),ASC tube jacket temperature (°C),LED temperature (°C),Box temperature (°C),Sample RH (%),Span deviation,Mass concentration (μg/m³),Mass concentration (μg/m³),Mass concentration (μg/m³)
DateTimeUTC,F1_M11,P_M11,Q1_M11,Q2_M11,T1_M11,T2_M11,T3_M11,T4_M11,T5_M11,U1_M11,ZSPAN_M11,X0_M11,X2_M11,X1_M11
2021-08-26 19:00:00,,0830.4,5.01,0.00,29.2,27.6,00.0,38.1,30.9,31.2,0001.6,0020.97,0009.81,0008.14
2021-08-26 19:01:00,,0830.4,5.00,0.00,29.1,26.3,00.0,38.1,30.5,31.5,0001.9,0021.55,0009.76,0008.12
2021-08-26 19:02:00,,0830.5,4.99,0.00,29.0,25.9,00.0,38.1,30.4,32.2,0001.8,0021.06,0009.67,0008.10
2021-08-26 19:03:00,,0830.4,5.00,0.00,28.9,26.2,00.0,38.1,30.5,32.5,0001.8,0020.78,0009.66,0008.07
2021-08-26 19:04:00,,0830.3,5.01,0.00,28.9,26.7,00.0,38.1,30.6,31.5,0001.6,0020.30,0009.70,0008.05
2021-08-26 19:05:00,,0830.3,5.00,0.00,29.0,27.1,00.0,38.0,30.8,31.5,0001.6,0020.95,0009.66,0008.04
2021-08-26 19:06:00,,0830.3,4.99,0.00,29.0,27.5,00.0,38.0,30.9,31.5,0001.7,0022.43,0009.67,0008.03
2021-08-26 19:07:00,,0830.3,5.00,0.00,29.1,27.9,00.0,38.1,31.0,31.3,0001.6,0022.70,0009.71,0008.01
2021-08-26 19:08:00,,0830.3,5.01,0.00,29.1,28.1,00.0,38.1,31.1,30.4,0001.6,0023.18,0009.72,0007.99
2021-08-26 19:09:00,,0830.4,5.01,0.00,29.2,28.2,00.0,38.1,31.1,30.6,0001.5,0022.73,0009.66,0007.96
2021-08-26 19:10:00,,0830.4,4.99,0.00,29.2,27.1,00.0,38.1,30.8,30.7,0001.4,0023.17,0009.63,0007.93
2021-08-26 19:11:00,,0830.4,5.00,0.00,29.0,25.9,00.0,38.1,30.4,31.2,0001.6,0023.08,0009.54,0007.90
2021-08-26 19:12:00,,0830.3,4.99,0.00,29.0,26.0,00.0,38.1,30.4,31.1,0001.3,0023.07,0009.56,0007.88
2021-08-26 19:13:00,,0830.3,5.01,0.00,28.9,26.4,00.0,38.1,30.6,30.7,0001.7,0024.12,0009.55,0007.86
2021-08-26 19:14:00,,0830.3,5.00,0.00,29.0,26.9,00.0,38.0,30.7,31.0,0001.7,0023.85,0009.51,0007.84
2021-08-26 19:15:00,,0830.3,5.01,0.00,29.0,27.3,00.0,38.0,30.8,30.7,0001.5,0023.62,0009.50,0007.83
2021-08-26 19:16:00,,0830.3,5.00,0.00,29.0,27.7,00.0,38.0,30.9,30.7,0001.6,0023.31,0009.45,0007.83
2021-08-26 19:17:00,,0830.3,5.00,0.00,29.1,28.0,00.0,38.0,31.0,30.3,0001.6,0022.34,0009.44,0007.81
2021-08-26 19:18:00,,0830.3,5.01,0.00,29.2,28.1,00.0,38.1,31.1,30.6,0001.6,0023.93,0009.45,0007.79
2021-08-26 19:19:00,,0830.2,5.00,0.00,29.1,27.0,00.0,38.1,30.7,30.3,0001.5,0023.34,0009.38,0007.76
2021-08-26 19:20:00,,0830.3,5.00,0.00,29.0,25.8,00.0,38.1,30.4,30.5,0001.4,0022.95,0009.40,0007.74
2021-08-26 19:21:00,,0830.2,5.00,0.00,28.9,25.8,00.0,38.1,30.4,30.9,0001.4,0022.63,0009.35,0007.72
2021-08-26 19:22:00,,0830.1,4.99,0.00,28.9,26.2,00.0,38.0,30.5,31.1,0001.4,0022.85,0009.31,0007.70
2021-08-26 19:23:00,,0830.2,5.00,0.00,28.9,26.7,00.0,38.0,30.6,31.3,0001.5,0023.35,0009.25,0007.69
2021-08-26 19:24:00,,0830.1,5.00,0.00,28.9,27.2,00.0,38.0,30.7,31.2,0001.2,0022.94,0009.20,0007.65
2021-08-26 19:25:00,,0830.1,5.01,0.00,29.0,27.5,00.0,38.0,30.8,31.4,0001.2,0023.41,0009.15,0007.63
2021-08-26 19:26:00,,0830.1,5.00,0.00,29.0,27.9,00.0,38.0,30.9,31.7,0001.4,0023.44,0009.12,0007.65
2021-08-26 19:27:00,,0830.1,5.00,0.00,29.1,28.1,00.0,38.0,31.0,31.5,0001.5,0023.46,0009.12,0007.64
2021-08-26 19:28:00,,0830.0,5.00,0.00,29.1,27.9,00.0,38.1,31.0,30.7,0001.3,0024.01,0009.10,0007.64
2021-08-26 19:29:00,,0829.9,5.00,0.00,29.1,26.4,00.0,38.0,30.6,30.8,0001.1,0023.61,0009.07,0007.65
2021-08-26 19:30:00,,0829.8,5.00,0.00,28.9,25.7,00.0,38.0,30.4,31.4,0001.2,0024.91,0009.20,0007.69
2021-08-26 19:31:00,,0829.9,4.99,0.00,28.9,26.0,00.0,38.0,30.4,31.1,0001.4,0026.64,0009.18,0007.67
2021-08-26 19:32:00,,0829.8,5.01,0.00,28.9,26.5,00.0,38.0,30.5,30.7,0001.5,0026.90,0009.14,0007.65
2021-08-26 19:33:00,,0829.8,4.99,0.00,28.9,26.9,00.0,38.0,30.6,30.7,0001.5,0026.91,0009.12,0007.64
2021-08-26 19:34:00,,0829.8,5.01,0.00,28.9,27.3,00.0,38.0,30.7,30.4,0001.6,0026.27,0009.09,0007.63
2021-08-26 19:35:00,,0829.7,4.99,0.00,29.0,27.7,00.0,38.0,30.8,30.0,0001.5,0025.87,0009.10,0007.65
2021-08-26 19:36:00,,0829.7,5.00,0.00,29.0,28.0,00.0,38.0,31.0,29.4,0001.6,0025.29,0009.13,0007.66
2021-08-26 19:37:00,,0829.6,5.00,0.00,29.1,28.2,00.0,38.0,31.1,29.5,0001.4,0025.56,0009.13,0007.64
2021-08-26 19:38:00,,0829.8,5.01,0.00,29.2,28.1,00.0,38.0,31.1,29.5,0001.5,0025.10,0009.09,0007.61
2021-08-26 19:39:00,,0829.6,5.00,0.00,29.1,26.7,00.0,38.0,30.6,29.7,0001.9,0024.51,0009.10,0007.57
2021-08-26 19:40:00,,0829.6,5.01,0.00,29.0,25.8,00.0,38.0,30.3,29.8,0002.0,0023.88,0009.02,0007.54
2021-08-26 19:41:00,,0829.5,5.00,0.00,28.9,26.0,00.0,38.0,30.4,29.7,0002.1,0022.56,0008.92,0007.50
2021-08-26 19:42:00,,0829.5,5.00,0.00,28.9,26.4,00.0,38.0,30.5,29.6,0002.0,0021.44,0008.94,0007.49
2021-08-26 19:43:00,,0829.6,5.00,0.00,28.9,26.9,00.0,38.0,30.6,29.3,0002.1,0022.75,0008.94,0007.47
2021-08-26 19:44:00,,0829.5,5.00,0.00,28.9,27.3,00.0,38.0,30.7,29.1,0002.0,0022.13,0008.94,0007.44
2021-08-26 19:45:00,,0829.6,4.98,0.00,29.0,27.7,00.0,38.0,30.8,28.8,0001.9,0021.95,0008.90,0007.36
2021-08-26 19:46:00,,0829.5,5.00,0.00,29.1,28.0,00.0,38.0,31.0,28.9,0001.8,0022.30,0008.81,0007.28
2021-08-26 19:47:00,,0829.5,5.00,0.00,29.1,28.2,00.0,38.0,31.1,29.1,0001.5,0021.89,0008.71,0007.21
2021-08-26 19:48:00,,0829.5,5.00,0.00,29.2,27.6,00.0,38.0,30.9,28.9,0001.5,0022.50,0008.63,0007.13
2021-08-26 19:49:00,,0829.6,5.01,0.00,29.0,26.0,00.0,38.0,30.4,29.2,0001.5,0022.99,0008.60,0007.10
2021-08-26 19:50:00,,0829.5,4.99,0.00,28.9,25.7,00.0,38.0,30.3,29.2,0001.4,0022.52,0008.47,0007.05
2021-08-26 19:51:00,,0829.5,5.00,0.00,28.9,26.1,00.0,38.0,30.4,29.2,0001.8,0021.80,0008.43,0007.01
2021-08-26 19:52:00,,0829.5,5.00,0.00,28.8,26.6,00.0,38.0,30.5,28.5,0001.9,0021.32,0008.35,0006.95
2021-08-26 19:53:00,,0829.5,5.01,0.00,28.9,27.0,00.0,37.9,30.7,28.4,0001.9,0020.74,0008.18,0006.88
2021-08-26 19:54:00,,0829.5,5.00,0.00,28.9,27.4,00.0,38.0,30.8,28.4,0001.8,0019.52,0008.15,0006.84
2021-08-26 19:55:00,,0829.5,5.00,0.00,29.0,27.8,00.0,38.0,30.9,28.8,0001.8,0020.37,0008.04,0006.79
2021-08-26 19:56:00,,0829.5,5.01,0.00,29.1,28.0,00.0,38.0,31.0,28.7,0002.0,0020.09,0007.98,0006.80
2021-08-26 19:57:00,,0829.6,4.99,0.00,29.1,28.3,00.0,38.0,31.1,28.3,0002.2,0019.96,0008.01,0006.80
2021-08-26 19:58:00,,0829.6,5.00,0.00,29.2,28.4,00.0,38.0,31.1,28.5,0002.4,0021.55,0008.00,0006.80
2021-08-26 19:59:00,,0829.5,5.00,0.00,29.2,27.2,00.0,38.1,30.8,28.3,0002.3,0020.84,0007.96,0006.78
